User: anonymous   Login
Location: Perryvale
(54.4667°N, 113.3833°W)
Time: 14:31:15
(UTC+00:00)
Language:

S-56A Canister/Altair - Orbit

View from above orbital plane
View from above orbital plane
View from above satellite
View from above satellite

Ground track
Ground track

The orbit data is extracted from the following two-line orbital elements,

1    82U 61004B   24139.13792783  .00001499  00000-0  12942-2 0  9993
2    82  38.8543 300.8294 1164345 149.1329 218.3390 12.26739405983423
Epoch (UTC): 18 May 2024 03:18:36
Eccentricity: 0.1164345
inclination: 38.8543°
perigee height: 638 km
apogee height: 2488 km
right ascension of ascending node: 300.8294°
argument of perigee: 149.1329°
revolutions per day: 12.26739405
mean anomaly at epoch: 218.3390°
orbit number at epoch: 98342

The dashed part of the orbit path shows where the satellite is in the earth's shadow,  

DLR